QPF
0.00 0.00 0.00 0.00 0.00 0.00 0.00 0.00 0.00 0.00 0.00 0.00 0.00 0.00 0.00 0.00 0.00 0.00 0.00 0.00 0.00 0.00 0.00 0.00 0.00 0.00 0.00 0.00 0.00 0.00 0.00 0.00 0.00 0.00 0.00 0.00 0.00 0.00 0.00 0.00 0.00 0.00 0.00 0.00
0.00 0.00 0.00 0.00 0.00 0.00 0.00 0.00 0.00 0.00 0.00 0.00 0.00 0.00 0.00 0.00 0.00 0.00 0.00 0.00 0.00 0.00 0.00 0.00 0.00 0.00 0.00 0.00 0.00 0.00 0.00 0.00 0.00 0.00 0.00 0.00 0.00 0.00 0.00 0.00 0.00 0.00 0.00 0.00
0.00 0.00 0.00 0.00 0.00 0.00 0.00 0.00 0.00 0.00 0.00 0.00 0.00 0.00 0.00 0.00 0.00 0.00 0.00 0.00 0.00 0.00 0.00 0.00 0.00 0.00 0.00 0.00 0.00 0.00 0.00 0.00 0.00 0.00 0.00 0.00 0.00 0.00 0.00 0.00 0.00 0.00 0.00 0.00
0.00 0.00 0.00 0.00 0.00 0.00 0.00 0.00 0.00 0.00 0.00 0.00 0.00 0.00 0.00 0.00 0.00 0.00 0.00 0.00 0.00 0.00 0.00 0.00 0.00 0.00 0.00 0.00 0.00 0.00 0.00 0.00 0.00 0.00 0.00 0.00 0.00 0.00 0.00 0.00 0.00 0.00 0.00 0.00
0.00 0.00 0.00 0.00 0.00 0.00 0.00 0.00 0.00 0.00 0.00 0.00 0.00 0.00 0.00 0.00 0.00 0.00 0.00 0.00 0.00 0.00 0.00 0.00 0.00 0.00 0.00 0.00 0.00 0.00 0.00 0.00 0.00 0.00 0.00 0.00 0.00 0.00 0.00 0.00 0.00 0.00 0.00 0.00
0.00 0.00 0.00 0.00 0.00 0.00 0.00 0.00 0.00 0.00 0.00 0.00 0.00 0.00 0.00 0.00 0.00 0.00 0.00 0.00 0.00 0.00 0.00 0.00 0.00 0.00 0.00 0.00 0.00 0.00 0.00 0.00 0.00 0.00 0.00 0.00 0.00 0.00 0.00 0.00 0.00 0.00 0.00 0.00
0.00 0.00 0.00 0.00 0.00 0.00 0.00 0.00 0.00 0.00 0.00 0.00 0.00 0.00 0.00 0.00 0.00 0.00 0.00 0.00 0.00 0.00 0.00 0.00 0.00 0.00 0.00 0.00 0.00 0.00 0.00 0.00 0.00 0.00 0.00 0.00 0.00 0.00 0.00 0.00 0.00 0.00 0.00 0.00
0.00 0.00 0.00 0.00 0.00 0.00 0.00 0.00 0.00 0.00 0.00 0.00 0.00 0.00 0.00 0.00 0.00 0.00 0.00 0.00 0.00 0.00 0.00 0.00 0.00 0.00 0.00 0.00 0.00 0.00 0.00 0.00 0.00 0.00 0.00 0.00 0.00 0.00 0.00 0.00 0.00 0.00 0.00 0.00
0.00 0.00 0.00 0.00 0.00 0.00 0.00 0.00 0.00 0.00 0.00 0.00 0.00 0.00 0.00 0.00 0.00 0.00 0.00 0.00 0.00 0.00 0.00 0.00 0.00 0.00 0.00 0.00 0.00 0.00 0.00 0.00 0.00 0.00 0.00 0.00 0.00 0.00 0.00 0.00 0.00 0.00 0.00 0.00
0.00 0.00 0.00 0.00 0.00 0.00 0.00 0.00 0.00 0.00 0.00 0.00 0.00 0.00 0.00 0.00 0.00 0.00 0.00 0.00 0.00 0.00 0.00 0.00 0.00 0.00 0.00 0.00 0.00 0.00 0.00 0.00 0.00 0.00 0.00 0.00 0.00 0.00 0.00 0.00 0.00 0.00 0.00 0.00
0.00 0.00 0.00 0.00 0.00 0.00 0.00 0.00 0.00 0.00 0.00 0.00 0.00 0.00 0.00 0.00 0.00 0.00 0.00 0.00 0.00 0.00 0.00 0.00 0.00 0.00 0.00 0.00 0.00 0.00 0.00 0.00 0.00 0.00 0.00 0.00 0.00 0.00 0.00 0.00 0.00 0.00 0.00 0.00
0.00 0.00 0.00 0.00 0.00 0.00 0.00 0.00 0.00 0.00 0.00 0.00 0.00 0.00 0.00 0.00 0.00 0.00 0.00 0.00 0.00 0.00 0.00 0.00 0.00 0.00 0.00 0.00 0.00 0.00 0.00 0.00 0.00 0.00 0.00 0.00 0.00 0.00 0.00 0.00 0.00 0.00 0.00 0.00
0.00 0.00 0.00 0.00 0.00 0.00 0.00 0.00 0.00 0.00 0.00 0.00 0.00 0.00 0.00 0.00 0.00 0.00 0.00 0.00 0.00 0.00 0.00 0.00 0.00 0.00 0.00 0.00 0.00 0.00 0.00 0.00 0.00 0.00 0.00 0.00 0.00 0.00 0.00 0.00 0.00 0.00 0.00 0.00
0.00 0.00 0.00 0.00 0.00 0.00 0.00 0.00 0.00 0.00 0.00 0.00 0.00 0.00 0.00 0.00 0.00 0.00 0.00 0.00 0.00 0.00 0.00 0.00 0.00 0.00 0.00 0.00 0.00 0.00 0.00 0.00 0.00 0.00 0.00 0.00 0.00 0.00 0.00 0.00 0.00 0.00 0.00 0.00
0.00 0.00 0.00 0.00 0.00 0.00 0.00 0.00 0.00 0.00 0.00 0.00 0.00 0.00 0.00 0.00 0.00 0.00 0.00 0.00 0.00 0.00 0.00 0.00 0.00 0.00 0.00 0.00 0.00 0.00 0.00 0.00 0.00 0.00 0.00 0.00 0.00 0.00 0.00 0.00 0.00 0.00 0.00 0.00
0.00 0.00 0.00 0.00 0.00 0.00 0.00 0.00 0.00 0.00 0.00 0.00 0.00 0.00 0.00 0.00 0.00 0.00 0.00 0.00 0.00 0.00 0.00 0.00 0.00 0.00 0.00 0.00 0.00 0.00 0.00 0.00 0.00 0.00 0.00 0.00 0.00 0.00 0.00 0.00 0.00 0.00 0.00 0.00
0.00 0.00 0.00 0.00 0.00 0.00 0.00 0.00 0.00 0.00 0.00 0.00 0.00 0.00 0.00 0.00 0.00 0.00 0.00 0.00 0.00 0.00 0.00 0.00 0.00 0.00 0.00 0.00 0.00 0.00 0.00 0.00 0.00 0.00 0.00 0.00 0.00 0.00 0.00 0.00 0.00 0.00 0.00 0.00
0.00 0.00 0.00 0.00 0.00 0.00 0.00 0.00 0.00 0.00 0.00 0.00 0.00 0.00 0.00 0.00 0.00 0.00 0.00 0.00 0.00 0.00 0.00 0.00 0.00 0.00 0.00 0.00 0.00 0.00 0.00 0.00 0.00 0.00 0.00 0.00 0.00 0.00 0.00 0.00 0.00 0.00 0.00 0.00
0.00 0.00 0.00 0.00 0.00 0.00 0.00 0.00 0.00 0.00 0.00 0.00 0.00 0.00 0.00 0.00 0.00 0.00 0.00 0.00 0.00 0.00 0.00 0.00 0.00 0.00 0.00 0.00 0.00 0.00 0.00 0.00 0.00 0.00 0.00 0.00 0.00 0.00 0.00 0.00 0.00 0.00 0.00 0.00
0.00 0.00 0.00 0.00 0.00 0.00 0.00 0.00 0.00 0.00 0.00 0.00 0.00 0.00 0.00 0.00 0.00 0.00 0.00 0.00 0.00 0.00 0.00 0.00 0.00 0.00 0.00 0.00 0.00 0.00 0.00 0.00 0.00 0.00 0.00 0.00 0.00 0.00 0.00 0.00 0.00 0.00 0.00 0.00
0.00 0.00 0.00 0.00 0.00 0.00 0.00 0.00 0.00 0.00 0.00 0.00 0.00 0.00 0.00 0.00 0.00 0.00 0.00 0.00 0.00 0.00 0.00 0.00 0.00 0.00 0.00 0.00 0.00 0.00 0.00 0.00 0.00 0.00 0.00 0.00 0.00 0.00 0.00 0.00 0.00 0.00 0.00 0.00
0.00 0.00 0.00 0.00 0.00 0.00 0.00 0.00 0.00 0.00 0.00 0.00 0.00 0.00 0.00 0.00 0.00 0.00 0.00 0.00 0.00 0.00 0.00 0.00 0.00 0.00 0.00 0.00 0.00 0.00 0.00 0.00 0.00 0.00 0.00 0.00 0.00 0.00 0.00 0.00 0.00 0.00 0.00 0.00
0.00 0.00 0.00 0.00 0.00 0.00 0.00 0.00 0.00 0.00 0.00 0.00 0.00 0.00 0.00 0.00 0.00 0.00 0.00 0.00 0.00 0.00 0.00 0.00 0.00 0.00 0.00 0.00 0.00 0.00 0.00 0.00 0.00 0.00 0.00 0.00 0.00 0.00 0.00 0.00 0.00 0.00 0.00 0.00
0.00 0.00 0.00 0.00 0.00 0.00 0.00 0.00 0.00 0.00 0.00 0.00 0.00 0.00 0.00 0.00 0.00 0.00 0.00 0.00 0.00 0.00 0.00 0.00 0.00 0.00 0.00 0.00 0.00 0.00 0.00 0.00 0.00 0.00 0.00 0.00 0.00 0.00 0.00 0.00 0.00 0.00 0.00 0.00
0.00 0.00 0.00 0.00 0.00 0.00 0.00 0.00 0.00 0.00 0.00 0.00 0.00 0.00 0.00 0.00 0.00 0.00 0.00 0.00 0.00 0.00 0.00 0.00 0.00 0.00 0.00 0.00 0.00 0.00 0.00 0.00 0.00 0.00 0.00 0.00 0.00 0.00 0.00 0.00 0.00 0.00 0.00 0.00
0.00 0.00 0.00 0.00 0.00 0.00 0.00 0.00 0.00 0.00 0.00 0.00 0.00 0.00 0.00 0.00 0.00 0.00 0.00 0.00 0.00 0.00 0.00 0.00 0.00 0.00 0.00 0.00 0.00 0.00 0.00 0.00 0.00 0.00 0.00 0.00 0.00 0.00 0.00 0.00 0.00 0.00 0.00 0.00
0.00 0.00 0.00 0.00 0.00 0.00 0.00 0.00 0.00 0.00 0.00 0.00 0.00 0.00 0.00 0.00 0.00 0.00 0.00 0.00 0.00 0.00 0.00 0.00 0.00 0.00 0.00 0.00 0.00 0.00 0.00 0.00 0.00 0.00 0.00 0.00 0.00 0.00 0.00 0.00 0.00 0.00 0.00 0.00
MSLP
1027.27 1027.47 1028.07 1029.13 1030.53 1032.31 1033.57 1034.33 1034.96 1034.09 1033.52 1031.42 1030.27 1029.78 1029.36 1029.40 1029.58 1029.79 1029.94 1030.41 1030.79 1031.33 1031.70 1032.13 1031.84 1031.61 1031.60 1031.45 1031.31 1031.16 1031.05 1031.21 1031.26 1031.00 1030.62 1030.08 1029.56 1029.13 1028.73 1028.28 1027.74 1027.19 1026.58 1025.94
1027.28 1027.35 1027.84 1028.59 1029.35 1030.34 1031.34 1032.09 1032.52 1032.43 1031.02 1029.25 1028.37 1028.58 1028.65 1028.64 1028.95 1029.17 1029.65 1030.05 1030.64 1031.09 1031.71 1031.85 1031.57 1031.62 1031.62 1031.58 1031.41 1031.22 1031.25 1031.42 1031.30 1031.18 1030.80 1030.39 1029.92 1029.52 1029.10 1028.70 1028.17 1027.62 1026.99 1026.43
1027.80 1027.55 1027.80 1027.70 1026.82 1028.03 1028.83 1029.02 1029.44 1030.21 1028.05 1027.70 1027.78 1027.73 1027.58 1027.66 1028.14 1028.58 1029.21 1029.90 1030.51 1031.00 1031.51 1031.49 1031.46 1031.55 1031.60 1031.64 1031.44 1031.37 1031.44 1031.57 1031.45 1031.39 1031.10 1030.74 1030.31 1029.91 1029.53 1029.13 1028.63 1028.11 1027.50 1026.89
1028.39 1028.16 1027.79 1024.57 1024.32 1024.78 1025.72 1026.22 1026.82 1026.58 1026.40 1026.23 1026.16 1026.30 1026.58 1026.88 1027.40 1028.17 1028.97 1029.79 1030.37 1030.91 1031.23 1031.26 1031.42 1031.48 1031.60 1031.62 1031.57 1031.58 1031.71 1031.76 1031.68 1031.60 1031.40 1031.13 1030.70 1030.34 1029.99 1029.57 1029.17 1028.61 1028.02 1027.41
1028.55 1028.07 1025.88 1023.38 1023.24 1023.71 1024.51 1024.21 1024.00 1024.55 1024.86 1025.32 1025.97 1026.34 1026.58 1026.44 1026.84 1027.55 1028.54 1029.36 1030.04 1030.43 1030.81 1031.15 1031.33 1031.50 1031.66 1031.81 1031.79 1031.75 1031.99 1032.02 1031.95 1031.89 1031.77 1031.55 1031.23 1030.85 1030.47 1030.11 1029.63 1029.08 1028.54 1027.88
1028.96 1028.32 1026.05 1023.16 1021.91 1022.10 1023.22 1023.27 1021.71 1022.72 1023.58 1024.64 1025.69 1026.43 1026.61 1026.56 1026.81 1027.69 1028.45 1029.18 1029.88 1030.29 1030.75 1031.11 1031.35 1031.51 1031.82 1032.02 1032.01 1031.97 1032.27 1032.37 1032.31 1032.13 1032.02 1031.92 1031.64 1031.24 1030.86 1030.53 1030.16 1029.63 1029.05 1028.46
1028.99 1028.01 1024.99 1022.33 1021.74 1021.97 1022.88 1021.74 1021.07 1021.76 1022.75 1024.09 1024.88 1024.54 1025.00 1026.18 1026.97 1027.60 1028.29 1029.10 1029.61 1030.17 1030.63 1030.97 1031.28 1031.56 1031.97 1032.13 1032.13 1032.19 1032.48 1032.56 1032.50 1032.39 1032.24 1032.10 1031.76 1031.50 1031.11 1030.84 1030.38 1029.94 1029.48 1028.90
1028.60 1027.69 1024.27 1021.51 1021.88 1021.76 1020.82 1020.61 1020.69 1021.34 1022.23 1023.29 1024.06 1024.41 1025.06 1025.87 1026.90 1027.72 1028.33 1029.02 1029.51 1030.26 1030.69 1031.03 1031.26 1031.67 1032.05 1032.17 1032.34 1032.45 1032.63 1032.78 1032.77 1032.69 1032.56 1032.34 1032.04 1031.73 1031.34 1031.02 1030.60 1030.36 1029.79 1029.30
1025.04 1023.60 1021.65 1020.91 1020.35 1019.74 1019.86 1020.15 1020.57 1021.11 1021.84 1022.57 1023.72 1024.45 1025.04 1025.91 1026.82 1027.56 1028.13 1028.76 1029.43 1030.06 1030.67 1031.09 1031.29 1031.66 1032.02 1032.28 1032.42 1032.66 1032.86 1033.04 1033.00 1032.91 1032.74 1032.55 1032.37 1032.04 1031.72 1031.34 1030.97 1030.68 1030.24 1029.74
1023.05 1020.79 1020.77 1020.47 1020.06 1019.67 1019.67 1019.78 1020.18 1020.69 1021.56 1022.41 1023.29 1024.20 1025.08 1025.98 1026.76 1027.39 1027.99 1028.67 1029.23 1030.01 1030.71 1031.13 1031.41 1031.74 1032.01 1032.30 1032.60 1032.86 1033.10 1033.20 1033.20 1033.16 1033.02 1032.86 1032.60 1032.28 1032.04 1031.68 1031.28 1031.02 1030.62 1030.22
1021.39 1020.17 1019.98 1019.27 1019.11 1019.09 1019.41 1019.57 1020.16 1020.86 1021.43 1022.13 1022.93 1024.10 1024.78 1025.83 1026.45 1026.94 1027.66 1028.34 1028.96 1029.77 1030.45 1030.96 1031.46 1031.86 1032.23 1032.52 1032.72 1033.00 1033.17 1033.27 1033.35 1033.35 1033.27 1033.11 1032.79 1032.58 1032.37 1032.08 1031.56 1031.29 1031.03 1030.54
1018.87 1017.93 1017.80 1017.61 1017.55 1018.17 1018.95 1019.29 1019.88 1020.62 1021.67 1022.18 1022.48 1023.55 1024.52 1025.32 1025.87 1026.53 1027.31 1028.06 1028.98 1029.63 1030.24 1030.86 1031.46 1031.98 1032.35 1032.54 1032.71 1032.93 1033.21 1033.35 1033.43 1033.43 1033.29 1033.11 1033.01 1032.74 1032.42 1032.16 1031.86 1031.56 1031.24 1030.88
1016.38 1016.60 1016.69 1016.50 1016.62 1017.12 1018.07 1018.72 1019.39 1020.08 1020.62 1021.71 1022.47 1023.11 1023.95 1024.84 1025.52 1026.21 1027.15 1027.85 1028.54 1029.27 1029.91 1030.65 1031.40 1031.94 1032.31 1032.51 1032.71 1032.96 1033.23 1033.31 1033.44 1033.44 1033.38 1033.25 1033.17 1033.21 1033.06 1032.48 1032.21 1032.04 1031.67 1031.29
1015.48 1015.96 1016.45 1016.51 1016.50 1016.76 1017.28 1017.92 1018.69 1019.44 1020.10 1020.83 1021.72 1022.86 1023.56 1024.53 1025.62 1026.24 1026.75 1027.27 1028.22 1029.06 1029.83 1030.51 1031.23 1031.86 1032.16 1032.40 1032.65 1032.91 1033.16 1033.31 1033.51 1033.58 1033.51 1033.45 1033.44 1033.46 1033.51 1033.56 1033.25 1032.93 1032.26 1031.87
1014.99 1014.86 1014.97 1015.12 1015.86 1016.41 1016.89 1017.81 1018.83 1019.63 1020.30 1021.17 1021.76 1022.40 1023.41 1024.37 1025.16 1025.72 1026.51 1027.35 1028.21 1029.04 1029.80 1030.52 1031.11 1031.62 1031.95 1032.18 1032.52 1032.79 1033.05 1033.26 1033.44 1033.58 1033.61 1033.65 1033.70 1033.78 1033.86 1033.93 1034.05 1033.81 1033.05 1032.53
1014.30 1014.83 1015.03 1015.22 1015.61 1016.19 1016.88 1017.67 1018.31 1019.18 1020.05 1020.85 1021.60 1022.44 1022.89 1023.50 1024.54 1025.59 1026.52 1027.33 1028.36 1029.15 1029.59 1030.24 1030.77 1031.11 1031.52 1031.94 1032.35 1032.67 1032.99 1033.26 1033.48 1033.74 1033.90 1034.02 1034.04 1034.18 1034.33 1034.38 1034.36 1034.31 1034.10 1033.61
1014.20 1014.82 1015.00 1015.31 1015.54 1015.91 1016.42 1016.89 1017.45 1018.38 1019.48 1020.42 1021.22 1022.16 1023.20 1024.26 1025.26 1026.10 1026.79 1027.39 1027.88 1028.47 1029.06 1029.71 1030.25 1030.84 1031.35 1031.62 1032.09 1032.48 1032.85 1033.21 1033.54 1033.81 1033.98 1034.15 1034.29 1034.44 1034.55 1034.68 1034.78 1034.67 1034.57 1034.43
1013.02 1013.23 1013.68 1013.99 1014.77 1015.61 1016.26 1016.71 1017.37 1018.20 1019.20 1019.85 1021.06 1022.31 1023.34 1024.24 1024.85 1025.66 1026.56 1027.38 1028.13 1028.68 1028.95 1029.26 1029.83 1030.48 1030.99 1031.29 1031.73 1032.21 1032.58 1032.94 1033.36 1033.73 1033.99 1034.22 1034.39 1034.48 1034.70 1034.84 1034.91 1035.01 1034.95 1035.04
1012.50 1012.82 1013.17 1013.68 1014.13 1014.93 1015.61 1016.47 1017.24 1017.91 1018.99 1019.99 1021.11 1022.00 1022.50 1023.26 1024.33 1025.49 1026.50 1027.40 1028.13 1028.56 1028.63 1028.97 1029.50 1030.08 1030.57 1030.96 1031.44 1031.95 1032.47 1032.89 1033.25 1033.56 1033.82 1034.19 1034.49 1034.67 1034.88 1035.05 1035.19 1035.23 1035.23 1035.29
1012.12 1012.45 1012.88 1013.30 1013.91 1014.58 1015.40 1016.08 1016.88 1017.93 1018.83 1019.78 1020.70 1021.83 1022.91 1024.04 1024.66 1025.60 1026.35 1026.91 1026.96 1027.19 1027.64 1028.42 1029.15 1029.73 1030.13 1030.58 1031.24 1031.75 1032.26 1032.77 1033.18 1033.46 1033.84 1034.24 1034.56 1034.93 1035.09 1035.19 1035.33 1035.47 1035.50 1035.56
1011.85 1012.23 1012.78 1013.34 1013.90 1014.42 1015.06 1015.89 1016.85 1017.93 1018.90 1019.59 1020.46 1021.35 1022.16 1023.35 1024.29 1025.21 1026.45 1026.91 1026.82 1027.34 1027.62 1028.19 1028.83 1029.36 1029.78 1030.37 1030.93 1031.41 1031.91 1032.43 1032.93 1033.49 1033.92 1034.30 1034.63 1034.89 1035.17 1035.39 1035.52 1035.63 1035.74 1035.82
1011.70 1012.19 1012.88 1013.56 1014.12 1014.69 1015.39 1016.02 1016.69 1017.76 1018.82 1019.80 1020.61 1021.50 1022.61 1023.87 1024.63 1025.12 1025.41 1025.63 1026.12 1026.80 1027.32 1027.87 1028.42 1028.85 1029.32 1030.08 1030.46 1031.04 1031.59 1032.06 1032.56 1033.19 1033.77 1034.16 1034.57 1034.99 1035.16 1035.37 1035.60 1035.77 1035.88 1035.94
1011.68 1012.23 1013.00 1013.82 1014.29 1014.94 1015.95 1016.57 1017.24 1017.75 1018.73 1019.59 1020.57 1021.43 1022.15 1022.89 1023.80 1024.95 1025.40 1025.30 1025.48 1025.89 1026.47 1027.11 1027.71 1028.29 1028.98 1029.46 1029.99 1030.57 1031.12 1031.68 1032.25 1032.81 1033.35 1033.76 1034.16 1034.65 1034.93 1035.17 1035.46 1035.75 1035.86 1035.86
1011.85 1012.50 1013.18 1014.02 1014.72 1015.49 1016.54 1017.06 1017.60 1018.03 1018.41 1019.20 1020.01 1020.74 1021.62 1023.01 1023.92 1023.99 1024.02 1024.18 1024.88 1025.53 1025.98 1026.49 1027.20 1027.79 1028.57 1029.03 1029.50 1030.09 1030.67 1031.20 1031.82 1032.36 1032.91 1033.47 1033.91 1034.32 1034.73 1034.96 1035.27 1035.62 1035.50 1035.42
1012.08 1012.72 1013.44 1014.18 1014.88 1015.49 1016.08 1017.00 1017.88 1018.56 1019.12 1019.80 1020.44 1021.06 1021.41 1021.91 1022.40 1023.09 1023.80 1024.20 1024.71 1025.30 1025.82 1026.29 1026.84 1027.50 1028.08 1028.51 1029.02 1029.56 1030.11 1030.73 1031.37 1031.81 1032.31 1032.89 1033.44 1033.86 1034.33 1034.68 1034.98 1034.93 1035.15 1035.14
1012.65 1013.17 1013.62 1013.89 1014.26 1015.15 1016.01 1016.80 1017.74 1018.75 1019.44 1020.32 1020.79 1021.13 1021.52 1021.83 1022.31 1022.76 1023.47 1024.08 1024.58 1025.11 1025.57 1026.05 1026.58 1027.17 1027.65 1028.11 1028.59 1029.05 1029.52 1030.18 1030.97 1031.29 1031.74 1032.22 1032.68 1033.09 1033.55 1033.73 1034.23 1034.25 1034.42 1034.58
1013.12 1013.61 1014.28 1014.84 1015.17 1015.54 1015.99 1016.65 1017.50 1018.45 1019.02 1019.58 1020.15 1020.87 1021.41 1022.01 1022.38 1022.72 1023.18 1023.78 1024.21 1024.72 1025.25 1025.80 1026.33 1026.79 1027.19 1027.69 1028.16 1028.62 1029.20 1029.75 1030.25 1030.57 1031.07 1031.67 1032.11 1032.33 1032.72 1032.85 1033.21 1033.46 1033.76 1034.08
Thickness
5557 5562 5554 5543 5529 5514 5489 5494 5496 5485 5484 5500 5521 5519 5519 5513 5508 5505 5498 5485 5476 5466 5455 5443 5437 5429 5419 5410 5400 5388 5376 5361 5347 5336 5325 5315 5305 5296 5287 5282 5284 5285 5288 5291
5560 5560 5554 5553 5539 5526 5525 5520 5499 5502 5504 5521 5536 5527 5525 5519 5514 5510 5497 5487 5478 5467 5454 5445 5439 5428 5419 5409 5398 5387 5375 5361 5347 5335 5325 5314 5303 5294 5285 5278 5278 5280 5282 5285
5549 5553 5552 5527 5539 5538 5531 5530 5534 5523 5534 5537 5533 5530 5527 5525 5517 5509 5497 5486 5476 5465 5454 5445 5437 5427 5418 5408 5398 5386 5373 5360 5348 5335 5323 5313 5303 5292 5282 5274 5272 5274 5276 5278
5525 5536 5496 5568 5572 5567 5563 5558 5543 5549 5547 5546 5548 5544 5538 5529 5518 5507 5497 5486 5473 5462 5454 5445 5436 5427 5418 5407 5397 5385 5372 5359 5348 5335 5322 5311 5300 5289 5279 5270 5267 5268 5271 5273
5518 5531 5556 5583 5574 5562 5556 5568 5570 5564 5560 5550 5544 5537 5532 5527 5520 5510 5497 5484 5472 5463 5455 5445 5437 5427 5417 5406 5395 5384 5371 5359 5347 5335 5321 5310 5298 5288 5277 5267 5262 5263 5265 5268
5505 5529 5537 5567 5585 5580 5574 5544 5583 5575 5567 5552 5539 5525 5519 5524 5517 5505 5495 5483 5472 5463 5453 5444 5436 5427 5415 5404 5393 5383 5369 5357 5346 5334 5322 5309 5297 5286 5276 5265 5258 5257 5259 5262
5455 5478 5536 5568 5580 5578 5558 5569 5585 5572 5564 5550 5546 5545 5534 5521 5512 5504 5493 5482 5473 5462 5453 5445 5435 5425 5413 5403 5393 5382 5369 5357 5346 5335 5323 5311 5299 5287 5277 5265 5257 5253 5254 5256
5491 5490 5525 5572 5572 5569 5572 5580 5584 5574 5564 5553 5545 5538 5533 5524 5511 5500 5490 5481 5472 5460 5451 5443 5434 5424 5412 5402 5391 5380 5368 5355 5344 5334 5323 5312 5301 5290 5278 5268 5259 5251 5251 5252
5537 5543 5565 5571 5580 5582 5579 5580 5580 5572 5563 5554 5542 5537 5530 5520 5508 5498 5490 5481 5471 5460 5450 5442 5433 5423 5412 5401 5391 5379 5367 5354 5343 5334 5324 5314 5302 5292 5281 5270 5260 5253 5249 5249
5556 5576 5568 5567 5573 5582 5577 5582 5577 5570 5559 5553 5544 5535 5523 5514 5505 5496 5488 5479 5470 5459 5449 5440 5431 5421 5411 5401 5389 5377 5365 5354 5343 5332 5323 5313 5304 5295 5284 5274 5264 5254 5248 5245
5556 5569 5571 5574 5577 5580 5578 5579 5573 5563 5557 5551 5543 5531 5524 5513 5505 5498 5489 5479 5470 5459 5448 5439 5429 5419 5409 5398 5388 5376 5365 5355 5343 5332 5323 5313 5305 5295 5286 5278 5267 5255 5247 5245
5568 5581 5589 5587 5586 5581 5576 5575 5570 5563 5552 5547 5544 5533 5524 5514 5507 5498 5488 5478 5467 5458 5447 5437 5427 5416 5406 5397 5387 5376 5365 5354 5343 5332 5323 5315 5306 5296 5287 5279 5269 5258 5249 5243
5593 5589 5587 5593 5589 5587 5581 5575 5569 5564 5560 5547 5539 5535 5526 5515 5505 5496 5487 5478 5469 5459 5448 5437 5425 5414 5405 5396 5386 5375 5364 5355 5344 5334 5324 5315 5307 5297 5284 5279 5272 5260 5251 5243
5597 5590 5588 5588 5588 5582 5583 5579 5572 5565 5560 5554 5544 5531 5524 5514 5500 5493 5487 5480 5468 5457 5446 5435 5424 5413 5404 5395 5385 5375 5365 5355 5344 5334 5323 5314 5306 5297 5287 5274 5264 5260 5254 5245
5593 5597 5596 5594 5588 5584 5580 5571 5565 5558 5552 5543 5539 5532 5520 5510 5501 5494 5484 5475 5465 5453 5442 5432 5422 5413 5403 5394 5385 5375 5365 5353 5344 5333 5324 5315 5306 5296 5286 5277 5266 5258 5254 5246
5593 5590 5592 5589 5584 5580 5574 5568 5566 5558 5550 5541 5536 5527 5522 5515 5500 5488 5479 5470 5459 5449 5440 5431 5422 5414 5404 5394 5385 5374 5365 5354 5343 5332 5321 5312 5303 5294 5285 5276 5268 5259 5251 5244
5589 5583 5580 5582 5578 5574 5573 5570 5570 5562 5551 5543 5535 5525 5513 5499 5488 5480 5472 5464 5458 5449 5442 5433 5423 5414 5404 5395 5384 5373 5363 5352 5341 5330 5321 5311 5301 5292 5283 5274 5266 5259 5250 5243
5600 5597 5590 5589 5580 5571 5569 5566 5562 5555 5549 5544 5530 5518 5504 5496 5493 5481 5469 5460 5452 5443 5439 5432 5423 5413 5403 5394 5384 5373 5363 5353 5342 5330 5319 5310 5301 5292 5282 5273 5265 5257 5249 5242
5596 5594 5589 5585 5581 5574 5571 5563 5557 5553 5542 5533 5523 5515 5510 5502 5489 5476 5465 5453 5444 5441 5437 5430 5421 5411 5402 5392 5382 5372 5360 5350 5341 5330 5320 5309 5299 5289 5280 5271 5262 5255 5248 5240
5595 5592 5586 5582 5576 5571 5566 5562 5554 5546 5538 5530 5521 5509 5499 5485 5478 5469 5461 5455 5452 5447 5440 5429 5419 5409 5400 5390 5380 5369 5358 5347 5337 5328 5318 5307 5297 5286 5278 5269 5261 5252 5244 5238
5593 5589 5583 5575 5570 5567 5563 5555 5548 5540 5530 5525 5519 5510 5502 5486 5476 5466 5454 5449 5446 5439 5434 5425 5415 5405 5396 5387 5377 5367 5357 5346 5335 5324 5314 5303 5293 5286 5275 5265 5257 5249 5241 5234
5588 5584 5573 5564 5561 5558 5553 5548 5546 5535 5526 5517 5505 5497 5487 5475 5465 5461 5457 5454 5445 5435 5428 5420 5411 5403 5394 5384 5375 5364 5354 5345 5335 5323 5311 5300 5291 5281 5272 5263 5254 5246 5239 5232
5582 5578 5567 5556 5555 5553 5542 5539 5532 5530 5521 5514 5502 5493 5488 5478 5468 5455 5448 5448 5443 5436 5429 5420 5411 5402 5393 5382 5373 5363 5353 5342 5332 5321 5310 5300 5291 5280 5271 5263 5254 5246 5237 5230
5575 5569 5563 5553 5548 5543 5535 5528 5523 5520 5516 5509 5500 5492 5483 5468 5457 5456 5453 5448 5441 5432 5427 5419 5409 5400 5390 5380 5371 5360 5350 5341 5330 5319 5309 5297 5288 5278 5269 5262 5253 5245 5237 5230
5567 5561 5555 5550 5546 5541 5535 5524 5515 5509 5504 5496 5490 5483 5478 5471 5464 5457 5447 5441 5434 5427 5420 5413 5405 5395 5386 5378 5368 5358 5349 5339 5329 5318 5307 5296 5286 5276 5268 5260 5252 5244 5236 5229
5559 5555 5552 5550 5547 5537 5529 5522 5513 5501 5494 5485 5478 5474 5469 5464 5457 5451 5443 5434 5428 5421 5414 5406 5398 5389 5381 5373 5364 5355 5346 5336 5325 5315 5305 5295 5285 5275 5267 5258 5250 5242 5234 5226
5548 5543 5538 5533 5530 5526 5523 5517 5509 5499 5491 5486 5480 5469 5463 5455 5449 5443 5437 5430 5423 5415 5408 5400 5392 5384 5377 5368 5359 5350 5341 5331 5322 5312 5303 5292 5282 5274 5265 5257 5248 5240 5232 5223